Weather History for Sterling Muni, Sterling, CO, CO

Change the Weather History Date:

Thursday, May 15, 2014

  Actual Average Record
Temperature  
Mean Temperature 50 °F -  
Max Temperature 64 °F 73 °F 86 °F (2013)
Min Temperature 37 °F 43 °F 37 °F (2014)
Degree Days  
Heating Degree Days 14    
Moisture  
Dew Point 36 °F    
Average Humidity 59    
Maximum Humidity 100    
Minimum Humidity 30    
Precipitation  
Precipitation 0.00 in - - ()
Sea Level Pressure  
Sea Level Pressure 30.20 in    
Wind  
Wind Speed 7 mph (NNW)    
Max Wind Speed 21 mph    
Max Gust Speed 28 mph    
Visibility 10 miles    
Events      
Averages and records for this station are not official NWS values.
T = Trace of Precipitation, MM = Missing Value Source: NWS Daily Summary

Daily Weather History Graph

Daily Weather History Graph

Search for Another Location

Airport:

Trip Planner

Search our weather history database for the weather conditions in past years. The results will help you decide how hot, cold, wet, or windy it might be!

Date:

Astronomy

May. 15, 2014 Rise Set
Actual Time 5:36 AM MDT 8:03 PM MDT
Civil Twilight 5:05 AM MDT 8:34 PM MDT
Nautical Twilight 4:26 AM MDT 9:12 PM MDT
Astronomical Twilight 3:43 AM MDT 9:56 PM MDT
Moon 9:13 PM MDT (5/15) 6:25 AM MDT (5/15)
Length of Visible Light 15h 29m
Length of Day
14h 26m
Full, 99% of the Moon is Illuminated
May 15
Full
May 21
Last Quarter
May 28
New
Jun 5
First Quarter
Jun 12
Full

Hourly Weather History & Observations

Time (MDT) Temp. Windchill Dew Point Humidity Pressure Visibility Wind Dir Wind Speed Gust Speed Precip Events Conditions
12:10 AM 39.2 °F 35.0 °F 37.4 °F 93% 30.29 in 10.0 mi WSW 5.8 mph - N/A   Clear
12:30 AM 37.4 °F 33.8 °F 37.4 °F 100% 30.28 in 10.0 mi South 4.6 mph - N/A   Clear
12:50 AM 42.8 °F 38.0 °F 39.2 °F 87% 30.28 in 10.0 mi West 8.1 mph - N/A   Clear
1:10 AM 42.8 °F 40.1 °F 39.2 °F 87% 30.27 in 10.0 mi West 4.6 mph - N/A   Clear
1:30 AM 42.8 °F 39.3 °F 39.2 °F 87% 30.27 in 10.0 mi West 5.8 mph - N/A   Scattered Clouds
1:50 AM 42.8 °F - 39.2 °F 87% 30.26 in 10.0 mi Calm Calm - N/A   Mostly Cloudy
2:10 AM 42.8 °F 41.1 °F 39.2 °F 87% 30.26 in 10.0 mi WSW 3.5 mph - N/A   Scattered Clouds
2:30 AM 44.6 °F 42.2 °F 37.4 °F 76% 30.25 in 10.0 mi West 4.6 mph - N/A   Clear
2:50 AM 42.8 °F 41.1 °F 37.4 °F 81% 30.25 in 10.0 mi WSW 3.5 mph - N/A   Clear
3:10 AM 42.8 °F 41.1 °F 39.2 °F 87% 30.25 in 10.0 mi SW 3.5 mph - N/A   Clear
3:30 AM 42.8 °F 41.1 °F 37.4 °F 81% 30.25 in 10.0 mi West 3.5 mph - N/A   Clear
3:50 AM 42.8 °F 39.3 °F 37.4 °F 81% 30.24 in 10.0 mi WNW 5.8 mph - N/A   Clear
4:10 AM 41.0 °F 37.1 °F 37.4 °F 87% 30.24 in 10.0 mi NW 5.8 mph - N/A   Clear
4:30 AM 41.0 °F 37.1 °F 37.4 °F 87% 30.23 in 10.0 mi NW 5.8 mph - N/A   Clear
4:50 AM 41.0 °F 37.1 °F 35.6 °F 81% 30.24 in 10.0 mi NW 5.8 mph - N/A   Clear
5:10 AM 41.0 °F 37.1 °F 37.4 °F 87% 30.23 in 10.0 mi NW 5.8 mph - N/A   Scattered Clouds
5:30 AM 39.2 °F 35.9 °F 35.6 °F 87% 30.23 in 10.0 mi NW 4.6 mph - N/A   Scattered Clouds
5:50 AM 39.2 °F 34.2 °F 35.6 °F 87% 30.24 in 10.0 mi NNW 6.9 mph - N/A   Clear
6:10 AM 39.2 °F - 35.6 °F 87% 30.24 in 10.0 mi Calm Calm - N/A   Clear
6:30 AM 41.0 °F - 35.6 °F 81% 30.24 in 10.0 mi Calm Calm - N/A   Clear
6:50 AM 41.0 °F 39.0 °F 37.4 °F 87% 30.25 in 10.0 mi South 3.5 mph - N/A   Clear
7:10 AM 42.8 °F - 37.4 °F 81% 30.25 in 10.0 mi Calm Calm - N/A   Mostly Cloudy
7:30 AM 44.6 °F - 37.4 °F 76% 30.25 in 10.0 mi Calm Calm - N/A   Mostly Cloudy
7:50 AM 48.2 °F - 41.0 °F 76% 30.25 in 10.0 mi North 3.5 mph - N/A   Scattered Clouds
8:10 AM 50.0 °F - 41.0 °F 71% 30.25 in 10.0 mi NNE 8.1 mph - N/A   Clear
8:30 AM 51.8 °F - 41.0 °F 67% 30.25 in 10.0 mi North 8.1 mph - N/A   Clear
8:50 AM 51.8 °F - 41.0 °F 67% 30.25 in 10.0 mi North 9.2 mph - N/A   Clear
9:10 AM 53.6 °F - 41.0 °F 62% 30.25 in 10.0 mi ENE 4.6 mph - N/A   Clear
9:30 AM 53.6 °F - 41.0 °F 62% 30.24 in 10.0 mi ENE 8.1 mph - N/A   Clear
9:50 AM 55.4 °F - 41.0 °F 58% 30.24 in 10.0 mi NE 9.2 mph - N/A   Clear
10:10 AM 57.2 °F - 35.6 °F 44% 30.24 in 10.0 mi North 10.4 mph 20.7 mph N/A   Clear
10:30 AM 59.0 °F - 35.6 °F 42% 30.24 in 10.0 mi North 10.4 mph - N/A   Clear
10:50 AM 59.0 °F - 35.6 °F 42% 30.24 in 10.0 mi North 13.8 mph 17.3 mph N/A   Clear
11:10 AM 59.0 °F - 33.8 °F 39% 30.23 in 10.0 mi North 13.8 mph 20.7 mph N/A   Clear
11:30 AM 60.8 °F - 35.6 °F 39% 30.23 in 10.0 mi NE 12.7 mph 18.4 mph N/A   Clear
11:50 AM 59.0 °F - 33.8 °F 39% 30.23 in 10.0 mi North 9.2 mph 17.3 mph N/A   Scattered Clouds
12:10 PM 59.0 °F - 33.8 °F 39% 30.23 in 10.0 mi NNW 13.8 mph 20.7 mph N/A   Scattered Clouds
1:10 PM 62.6 °F - 33.8 °F 34% 30.21 in 10.0 mi NNW 12.7 mph 24.2 mph N/A   Scattered Clouds
1:30 PM 62.6 °F - 33.8 °F 34% 30.21 in 10.0 mi NNW 19.6 mph 24.2 mph N/A   Scattered Clouds
1:50 PM 64.4 °F - 33.8 °F 32% 30.20 in 10.0 mi North 17.3 mph 26.5 mph N/A   Scattered Clouds
2:10 PM 64.4 °F - 32.0 °F 30% 30.20 in 10.0 mi NNW 13.8 mph 25.3 mph N/A   Scattered Clouds
2:30 PM 64.4 °F - 32.0 °F 30% 30.20 in 10.0 mi NNW 13.8 mph 25.3 mph N/A   Scattered Clouds
2:50 PM 64.4 °F - 32.0 °F 30% 30.19 in 10.0 mi North 13.8 mph 24.2 mph N/A   Clear
3:10 PM 64.4 °F - 32.0 °F 30% 30.19 in 10.0 mi North 19.6 mph 23.0 mph N/A   Clear
3:30 PM 64.4 °F - 32.0 °F 30% 30.19 in 10.0 mi North 12.7 mph 20.7 mph N/A   Clear
3:50 PM 64.4 °F - 32.0 °F 30% 30.18 in 10.0 mi North 20.7 mph 27.6 mph N/A   Scattered Clouds
4:10 PM 62.6 °F - 32.0 °F 32% 30.18 in 10.0 mi North 18.4 mph 23.0 mph N/A   Scattered Clouds
4:30 PM 64.4 °F - 32.0 °F 30% 30.17 in 10.0 mi North 11.5 mph 21.9 mph N/A   Mostly Cloudy
4:50 PM 64.4 °F - 32.0 °F 30% 30.17 in 10.0 mi NNE 13.8 mph - N/A   Scattered Clouds
5:10 PM 64.4 °F - 32.0 °F 30% 30.16 in 10.0 mi NNE 11.5 mph - N/A   Clear
5:30 PM 62.6 °F - 32.0 °F 32% 30.16 in 10.0 mi NNE 9.2 mph - N/A   Scattered Clouds
5:50 PM 60.8 °F - 32.0 °F 34% 30.15 in 10.0 mi North 6.9 mph - N/A   Clear
6:10 PM 60.8 °F - 32.0 °F 34% 30.14 in 10.0 mi NE 8.1 mph - N/A   Clear
6:30 PM 62.6 °F - 32.0 °F 32% 30.14 in 10.0 mi NNE 5.8 mph - N/A   Clear
6:50 PM 60.8 °F - 32.0 °F 34% 30.14 in 10.0 mi ENE 4.6 mph - N/A   Clear
7:10 PM 60.8 °F - 32.0 °F 34% 30.14 in 10.0 mi East 3.5 mph - N/A   Clear
7:30 PM 60.8 °F - 32.0 °F 34% 30.14 in 10.0 mi Calm Calm - N/A   Clear
7:50 PM 57.2 °F - 35.6 °F 44% 30.14 in 10.0 mi SE 3.5 mph - N/A   Scattered Clouds
8:10 PM 57.2 °F - 33.8 °F 41% 30.13 in 10.0 mi ESE 5.8 mph - N/A   Mostly Cloudy
8:30 PM 57.2 °F - 33.8 °F 41% 30.14 in 10.0 mi Calm Calm - N/A   Overcast
8:50 PM 55.4 °F - 37.4 °F 51% 30.14 in 10.0 mi South 3.5 mph - N/A   Overcast
9:10 PM 53.6 °F - 41.0 °F 62% 30.14 in 10.0 mi South 3.5 mph - N/A   Mostly Cloudy
9:30 PM 51.8 °F - 37.4 °F 58% 30.14 in 10.0 mi South 3.5 mph - N/A   Scattered Clouds
9:50 PM 51.8 °F - 37.4 °F 58% 30.13 in 10.0 mi SSE 4.6 mph - N/A   Clear
10:10 PM 50.0 °F - 37.4 °F 62% 30.14 in 10.0 mi South 5.8 mph - N/A   Scattered Clouds
10:30 PM 48.2 °F - 35.6 °F 62% 30.13 in 10.0 mi South 4.6 mph - N/A   Scattered Clouds
10:50 PM 44.6 °F - 37.4 °F 76% 30.12 in 10.0 mi Calm Calm - N/A   Clear
11:10 PM 46.4 °F 44.3 °F 37.4 °F 71% 30.12 in 10.0 mi WSW 4.6 mph - N/A   Clear
11:30 PM 44.6 °F 40.2 °F 37.4 °F 76% 30.12 in 10.0 mi SW 8.1 mph - N/A   Clear
11:50 PM 44.6 °F 40.7 °F 35.6 °F 71% 30.11 in 10.0 mi SW 6.9 mph - N/A   Clear